Location: Del Amo
(33.8464°N, 118.2104°W)
Time: 04:22:27
(UTC+00:00)

Vanguard 2 Rocket - Pass Details

Date: 14 September 2024
Orbit: 553 x 3299 km, 32.9° (Epoch: 05 October)

Event Time Altitude Azimuth Distance (km) Brightness Sun altitude
Rises 14:16:49 0° 283° (WNW) 6,161 10.5 7.6°
Reaches altitude 10° 14:20:27 10° 281° (W) 5,429 10.3 8.4°
Maximum altitude 14:38:00 66° 205° (SSW) 3,467 9.9 12.0°
Drops below altitude 10° 14:57:22 10° 128° (SE) 5,896 12.2 16.0°
Sets 15:01:31 0° 125° (SE) 6,689 12.5 16.9°
